Ellensburg, WA
on Tuesday, December 4, 2012

Tuesday
Previous Day Next Day
Daily Summary
 ActualAverage (KYKM)Record (KYKM)
Temperature
Mean Temperature °F 30°F  
Max Temperature 46°F 39°F 62°F (2007)
Min Temperature 35°F 23°F 2°F (1984)
Degree Days
Heating Degree Days 24 34  
Month to date heating degree days 135  
Since 1 July heating degree days 1668  
Cooling Degree Days 0 0  
Month to date cooling degree days 0  
Year to date cooling degree days 472  
Moisture
Dew Point 36°F   
Average Humidity 81    
Maximum Humidity 87    
Minimum Humidity 61    
Precipitation
Precipitation 0.15 in 0.05 in 0.40 in (1951)
Month to date precipitation 0.20  
Year to date precipitation 6.92  
Snow
Snow 0.00 in 0.30 in 2.90 in (2002)
Month to date snowfall 1.1  
Year to date snowfall 13.3  
Since 1 July snowfall 4.7  
Snow Depth in   
Wind
Wind Speed 7 mph   
Max Wind Speed 20 mph   
Max Gust Speed mph   
Visibility 9 miles   
Events Rain   

Key: T is trace of precipitation, MM is missing value
Source: NWS Daily Summary
Time(PST)TemperatureDew PointHumidity Pressure Visibility Wind DirectionWind SpeedGust SpeedPrecipitationEvents Conditions
12:53 AM 46.9°F 34.0°F 61% 29.75 in 10.0 miles ESE 12.7 mph - N/A   Overcast
1:35 AM 44.6°F 35.6°F 71% 29.73 in 8.0 miles SE 8.1 mph - 0.02 in Rain Light Rain
1:53 AM 44.1°F 37.0°F 76% 29.74 in 6.0 miles South 6.9 mph - 0.06 in Rain Rain
3:15 AM 41.0°F 35.6°F 81% 29.73 in 7.0 miles ESE 6.9 mph - 0.03 in Rain Rain
3:53 AM 39.9°F 35.1°F 83% 29.73 in 10.0 miles East 8.1 mph - 0.06 in Rain Light Rain
4:09 AM 39.2°F 33.8°F 81% 29.71 in 9.0 miles ENE 9.2 mph - 0.01 in Rain Light Rain
4:41 AM 39.2°F 33.8°F 81% 29.71 in 10.0 miles NE 10.4 mph - 0.01 in   Overcast
4:53 AM 39.0°F 34.0°F 82% 29.73 in 10.0 miles NE 8.1 mph - 0.01 in   Overcast
5:04 AM 39.2°F 33.8°F 81% 29.71 in 10.0 miles ENE 5.8 mph - N/A   Overcast
5:45 AM 39.2°F 33.8°F 81% 29.71 in 10.0 miles NE 4.6 mph - 0.00 in   Overcast
5:53 AM 39.0°F 34.0°F 82% 29.73 in 10.0 miles Calm Calm - 0.00 in   Overcast
6:53 AM 39.0°F 35.1°F 86% 29.73 in 10.0 miles Calm Calm - N/A   Overcast
7:53 AM 39.9°F 35.1°F 83% 29.75 in 10.0 miles North 4.6 mph - N/A   Overcast
8:53 AM 41.0°F 36.0°F 82% 29.78 in 10.0 miles WNW 3.5 mph - N/A   Overcast
9:34 AM 42.8°F 35.6°F 76% 29.76 in 10.0 miles Calm Calm - N/A   Overcast
9:53 AM 43.0°F 37.0°F 80% 29.78 in 10.0 miles NW 3.5 mph - N/A   Overcast
10:53 AM 43.0°F 37.0°F 80% 29.78 in 10.0 miles West 3.5 mph - N/A   Overcast
11:53 AM 43.0°F 37.0°F 80% 29.77 in 10.0 miles West 6.9 mph - N/A   Overcast
12:53 PM 44.1°F 37.9°F 79% 29.76 in 10.0 miles West 5.8 mph - 0.00 in   Overcast
1:42 PM 44.6°F 39.2°F 81% 29.74 in 10.0 miles West 5.8 mph - N/A   Overcast
1:53 PM 45.0°F 39.0°F 80% 29.75 in 10.0 miles WNW 6.9 mph - N/A   Overcast
2:53 PM 46.0°F 39.0°F 76% 29.75 in 10.0 miles Calm Calm - N/A   Overcast
3:53 PM 45.0°F 39.9°F 82% 29.75 in 10.0 miles SSE 3.5 mph - 0.01 in Rain Light Rain
4:53 PM 43.0°F 39.0°F 86% 29.75 in 10.0 miles Calm Calm - 0.00 in Rain Light Rain
5:53 PM 43.0°F 39.0°F 86% 29.75 in 10.0 miles Calm Calm - 0.00 in   Overcast
6:45 PM 42.8°F 37.4°F 81% 29.72 in 10.0 miles West 6.9 mph - 0.00 in Rain Light Rain
6:53 PM 43.0°F 37.9°F 82% 29.75 in 10.0 miles West 9.2 mph - 0.00 in Rain Light Rain
7:53 PM 42.1°F 36.0°F 79% 29.73 in 10.0 miles Calm Calm - 0.01 in   Mostly Cloudy
8:53 PM 41.0°F 37.0°F 86% 29.73 in 10.0 miles ENE 5.8 mph - 0.00 in Rain Light Rain
9:53 PM 37.0°F 33.1°F 86% 29.73 in 9.0 miles Calm Calm - 0.00 in   Clear
10:53 PM 37.0°F 33.1°F 86% 29.75 in 7.0 miles Calm Calm - N/A   Scattered Clouds
10:59 PM 35.6°F 32.0°F 87% 29.73 in 1.8 miles NNE 5.8 mph - N/A   Scattered Clouds
11:08 PM 37.4°F 33.8°F 87% 29.73 in 3.0 miles NW 6.9 mph - N/A   Mostly Cloudy
11:53 PM 43.0°F 34.0°F 71% 29.75 in 10.0 miles NW 19.6 mph - N/A   Mostly Cloudy
Moon Phase
Dec. 04 Dec. 06 Dec. 13 Dec. 20 Dec. 28
Sunrise:07:31 AM (PST) Moon Rise:10:22 PM (PST)12/4
Sunset:04:13 PM (PST) Moon Set:11:14 AM (PST)12/4

Copyright © 2014 The Weather Underground, Inc.